Weather History for KSET - May, 2014

Change the Weather History Date:

Wednesday, May 14, 2014

  Actual Average (KSTL) Record (KSTL)
Temperature  
Mean Temperature 50 °F 66 °F  
Max Temperature 55 °F 76 °F 93 °F (2013)
Min Temperature 46 °F 57 °F 37 °F (1920)
Degree Days  
Heating Degree Days 15 3  
Month to date heating degree days 49  
Since 1 July heating degree days 4505  
Cooling Degree Days 0 4  
Month to date cooling degree days 38  
Year to date cooling degree days 84  
Moisture  
Dew Point 44 °F    
Average Humidity 79    
Maximum Humidity 90    
Minimum Humidity 64    
Precipitation  
Precipitation 0.28 in 0.15 in 3.33 in (1886)
Month to date precipitation 2.04  
Year to date precipitation 13.69  
Snow  
Snow 0.00 in 0.00 in 0.00 in (2013)
Month to date snowfall 0.0  
Since 1 July snowfall 17.7  
Snow Depth -    
Sea Level Pressure  
Sea Level Pressure 30.12 in    
Wind  
Wind Speed 8 mph (NNW)    
Max Wind Speed 14 mph    
Max Gust Speed -    
Visibility 9 miles    
Events Rain    
T = Trace of Precipitation, MM = Missing Value Source: NWS Daily Summary

Daily Weather History Graph

Daily Weather History Graph

Search for Another Location

Airport or City:

Trip Planner

Search our weather history database for the weather conditions in past years. The results will help you decide how hot, cold, wet, or windy it might be!

Date:

Astronomy

May. 14, 2014 Rise Set
Actual Time 5:50 AM CDT 8:06 PM CDT
Civil Twilight 5:20 AM CDT 8:36 PM CDT
Nautical Twilight 4:43 AM CDT 9:13 PM CDT
Astronomical Twilight 4:02 AM CDT 9:54 PM CDT
Moon 8:12 PM CDT (5/14) 5:48 AM CDT (5/14)
Length of Visible Light 15h 16m
Length of Day
14h 16m
Full, 100% of the Moon is Illuminated
May 14
Full
May 14
Full
May 21
Last Quarter
May 28
New
Jun 5
First Quarter

Hourly Weather History & Observations

Time (CDT) Temp. Dew Point Humidity Pressure Visibility Wind Dir Wind Speed Gust Speed Precip Events Conditions
12:54 AM 52.0 °F 48.0 °F 86% 30.20 in 10.0 mi NNW 3.5 mph - N/A   Clear
1:54 AM 52.0 °F 46.9 °F 83% 30.18 in 10.0 mi NNW 6.9 mph - N/A   Clear
2:54 AM 52.0 °F 46.0 °F 80% 30.19 in 10.0 mi NNW 8.1 mph - N/A   Clear
4:54 AM 51.1 °F 46.0 °F 83% 30.19 in 10.0 mi North 5.8 mph - N/A   Clear
5:54 AM 50.0 °F 44.1 °F 80% 30.17 in 10.0 mi North 5.8 mph - N/A   Clear
7:54 AM 52.0 °F 43.0 °F 71% 30.15 in 10.0 mi North 11.5 mph - N/A   Clear
8:54 AM 52.0 °F 42.1 °F 69% 30.15 in 10.0 mi North 10.4 mph - N/A   Clear
10:54 AM 54.0 °F 43.0 °F 66% 30.16 in 10.0 mi North 10.4 mph - N/A   Partly Cloudy
11:54 AM 54.0 °F 42.1 °F 64% 30.15 in 10.0 mi North 13.8 mph - N/A   Overcast
12:54 PM 54.0 °F 42.1 °F 64% 30.11 in 10.0 mi North 13.8 mph - N/A   Mostly Cloudy
1:54 PM 54.0 °F 42.1 °F 64% 30.10 in 10.0 mi North 11.5 mph - N/A   Overcast
2:54 PM 53.1 °F 44.1 °F 71% 30.09 in 8.0 mi North 10.4 mph - 0.00 in Rain Light Rain
3:54 PM 51.1 °F 45.0 °F 80% 30.06 in 5.0 mi North 9.2 mph - 0.04 in Rain Light Rain
4:54 PM 51.1 °F 46.9 °F 86% 30.03 in 10.0 mi North 10.4 mph - 0.02 in Rain Light Rain
5:54 PM 51.1 °F 46.9 °F 86% 30.02 in 10.0 mi North 10.4 mph - 0.03 in Rain Light Rain
6:54 PM 48.9 °F 45.0 °F 86% 30.06 in 10.0 mi NW 10.4 mph - 0.02 in Rain Light Rain
7:54 PM 46.9 °F 44.1 °F 90% 30.10 in 6.0 mi NW 13.8 mph - 0.06 in Rain Light Rain
8:54 PM 46.9 °F 44.1 °F 90% 30.10 in 9.0 mi NW 11.5 mph - 0.05 in Rain Light Rain
9:54 PM 46.9 °F 43.0 °F 86% 30.09 in 10.0 mi NNW 12.7 mph - 0.03 in Rain Light Rain
10:54 PM 46.9 °F 44.1 °F 90% 30.08 in 10.0 mi NNW 8.1 mph - 0.01 in Rain Light Rain
11:54 PM 46.9 °F 44.1 °F 90% 30.07 in 10.0 mi NNW 10.4 mph - 0.02 in Rain Light Rain